Location: Cahoon Acres
(40.8736°N, 111.8994°W)
Time: 18:49:55
(UTC+00:00)

deb Explorer IX - Visible Passes

Search period start: 06 June 2020 00:00
Search period end: 16 June 2020 00:00
Orbit: 546 x 1100 km, 38.8° (Epoch: 06 June)

Date Brightness Start Highest point End Pass type
(mag) Time Alt. Az. Time Alt. Az. Time Alt. Az.
06 Jun ? 03:29:32 10° W 03:33:39 44° SSW 03:38:16 10° SE visible
06 Jun ? 05:17:04 10° WSW 05:19:49 16° SSW 05:19:49 16° SSW visible
07 Jun ? 04:54:41 10° WSW 04:57:25 16° SSW 04:58:08 15° SSW visible
08 Jun ? 04:32:19 10° WSW 04:34:49 15° SSW 04:36:29 12° S visible
09 Jun ? 04:09:57 10° WSW 04:12:12 14° SSW 04:14:33 10° S visible
10 Jun ? 03:47:35 10° WSW 03:49:35 13° SSW 03:51:38 10° S visible
